Simultaneous Nadir Overpasses (SNOs) Predictions

Prediction of SNOs between AQUA and METOP-A Satellite Orbit:

Table of predicted SNOs for the next 14.0 days since TLE Epoch: 7/15/2016
Index Date (AQUA) Time (AQUA) Lat,Lon (AQUA) SZA (AQUA ) Date (METOP-A) Time (METOP-A) Lat,Lon (METOP-A) SZA (METOP-A ) Distance(km) Time Diff (sec)
1 07/17/2016 20:27:12 -73.86, 47.34 127.08 07/17/2016 20:26:32 -73.85, 47.33 127.08 1.22 40
2 07/17/2016 21:16:41 73.94,-145.21 53.02 07/17/2016 21:17:10 73.92,-145.17 52.99 2.86 29
3 07/20/2016 16:01:25 -73.88, 113.73 126.54 07/20/2016 16:00:52 -73.88, 113.80 126.54 2.29 33
4 07/20/2016 16:50:53 73.92, -78.72 53.52 07/20/2016 16:51:30 73.94, -78.71 53.53 2.22 37
5 07/23/2016 11:35:38 -73.86,-179.79 125.99 07/23/2016 11:35:14 -73.85,-179.85 126.00 2.52 24
6 07/23/2016 12:25:07 73.96, -12.36 54.12 07/23/2016 12:25:51 73.96, -12.26 54.11 3.24 44
7 07/26/2016 06:20:13 73.23, 80.37 53.93 07/26/2016 06:19:07 73.15, 77.63 53.99 88.65 66
8 07/26/2016 07:09:51 -73.85,-113.32 125.39 07/26/2016 07:09:35 -73.87,-113.39 125.37 3.05 16
9 07/26/2016 07:59:20 73.96, 54.09 54.73 07/26/2016 08:00:13 73.93, 54.07 54.69 3.31 53
10 07/29/2016 01:54:31 73.55, 146.15 54.92 07/29/2016 01:53:21 73.47, 144.74 54.92 45.25 70
11 07/29/2016 02:44:04 -73.91, -46.99 124.69 07/29/2016 02:43:55 -73.89, -46.94 124.70 2.34 9
12 07/29/2016 03:33:32 73.96, 120.52 55.39 07/29/2016 03:34:33 73.94, 120.52 55.36 2.31 61




NCC Satellite Simultaneous Nadir Overpasses (SNOs) Prediction Service
